Flag for U.S.A. Weather past 2 weeks in Flint, Michigan, U.S.A.

Now
19 °F

Clear.


Feels Like: 14 °F
Forecast: 21 / 33 °F
Wind: 3 mph from East

Location: Bishop International Airport

Current Time: Dec 20, 2014 at 3:13:57 AM

Latest Report: Dec 20, 2014 at 2:53 AM


Visibility: 7 mi

Pressure: 30.32 "Hg

Humidity: 85%

Dew point: 15 °F

Location of FlintLocation

Historic Weather in Flint — Graph

°F

Flint temperature yesterday

Maximum temperature yesterday: 32 °F (at 2:53 PM)
Minimum temperature yesterday: 20 °F (at 10:53 PM)
Average temperature yesterday: 27 °F

Past Weeks' High & Low Weather Summary

 TemperatureHumidityPressure
High52 °F (Dec 15, 1:53 PM)93% (Dec 13, 8:53 PM)30.74 "Hg (Dec 13, 8:53 PM)
Low18 °F (Dec 7, 6:53 AM)31% (Dec 7, 1:53 PM)29.68 "Hg (Dec 16, 12:53 PM)
Average35 °F76%30.18 "Hg
* Reported Dec 5 1:53 AM — Dec 20 1:53 AM, Flint, Weather by CustomWeather, © 2014

Note: Actual official high and low records may vary slightly from our data, if they occured in-between our weather recording intervals... More about our weather records

Advertising

Flint weather history for previous 24 hours

 ConditionsComfort  
Time TempWeatherWind HumidityBarometerVisibility
1:53 AM
Dec 20
19 °FClear.No wind85%30.31 "Hg7 mi
12:53 AM19 °FClear.No wind85%30.31 "Hg8 mi
11:53 PM
Dec 19
20 °FClear.3 mph82%30.31 "Hg9 mi
10:53 PM20 °FClear.3 mph85%30.30 "Hg9 mi
9:53 PM21 °FClear.No wind81%30.32 "Hg10 mi
8:53 PM25 °FClear.3 mph75%30.34 "Hg10 mi
7:53 PM25 °FClear.5 mph75%30.35 "Hg10 mi
6:53 PM26 °FPassing clouds.5 mph71%30.34 "Hg10 mi
5:53 PM28 °FPassing clouds.3 mph69%30.31 "Hg10 mi
4:53 PM29 °FPassing clouds.5 mph66%30.29 "Hg10 mi
4:01 PM32 °FPassing clouds.3 mph61%30.26 "Hg10 mi
2:53 PM32 °FScattered clouds.3 mph61%30.28 "Hg10 mi
1:53 PM31 °FScattered clouds.No wind67%30.29 "Hg10 mi
1:02 PM30 °FPartly sunny.3 mph66%30.26 "Hg10 mi
12:53 PM30 °FScattered clouds.No wind66%30.29 "Hg10 mi
11:53 AM28 °FPartly sunny.3 mph69%30.30 "Hg10 mi
10:53 AM27 °FOvercast.No wind69%30.32 "Hg10 mi
9:53 AM27 °FOvercast.5 mph69%30.32 "Hg10 mi
8:53 AM26 °FOvercast.5 mph71%30.31 "Hg10 mi
7:53 AM26 °FOvercast.5 mph74%30.29 "Hg10 mi
6:53 AM26 °FOvercast.5 mph74%30.28 "Hg10 mi
5:53 AM26 °FOvercast.6 mph77%30.27 "Hg10 mi
4:53 AM26 °FOvercast.6 mph77%30.26 "Hg10 mi
Weather by CustomWeather, © 2014

See weather overviewHow to use our weather pages